COSMOS 2251 DEB, 35593

Orbit data source: Space-Track

COSMOS 2251 DEB, 35593 is space debris in LEO originally from a launch on Wed, 16 Jun 1993 UTC launched from the Plesetsk Missile And Space Complex (PKMTR). The debris from Iridium 33, an American commercial communications satellite, has been tracked extensively since its accidental collision with the defunct Russian satellite Cosmos 2251 in 2009. This event, occurring at high speed in low Earth orbit (LEO), generated thousands of pieces of space debris, significantly increasing the risk of further collisions. The Iridium 33 debris cloud has impacted space traffic management and orbital debris mitigation strategies, making it a subject of ongoing study in space situational awareness.

Loading next visibility...
Identifier
35593, 1993-036AML
Orbit
LEO
Country
Flag of CISCIS
Related business
Manufacturer
Unknown
Mission
Spacecraft
Bus & Motor
Unknown
Mass
Unknown
Launch date (UTC)
1993-06-16 (33 years ago)
Launch vehicle
Unknown
Launch site
Plesetsk Missile And Space Complex (PKMTR)
Object type
Payload
Rocket body
Debris
Shape & HBR
Unknown shape, 0.1 m
Radar Cross Section
Small (<0.1 m²)

Expand to show TLE details & history
Last TLE update: 12 hours ago

TLE from 12 hours ago
0 COSMOS 2251 DEB
1 35593U 93036AML 26123.16046080  .00002434  00000-0  97059-3 0  9991
2 35593  74.0874  33.7555 0101022   5.5303 354.6933 14.26307546870812
Epoch: 2026-05-03T03:51Z
TLE epoch observation values (Epoch: 2026-05-03T03:51:03.813Z)
Latitude
-0.00008°
Longitude
114.92159°
Altitude
734.451 km
Speed
7.526 km/s
True Right ascension
02h 15m 01s
True Declination
0° 00' 00"
Sunlit
Object was in daylight at epoch
Visualization orbit readout
Latitude
Unknown
Longitude
Unknown
Altitude
Unknown
Speed
Unknown
Apparent Right ascension
Unknown
Apparent Declination
Unknown
Sunlit
N/A
Visualization observer readout
Local Sidereal Time
23:34:10
Azimuth
Unknown
Elevation
Unknown
Doppler factor
Unknown
Orbital elements
Apogee altitude
874.262 km
Perigee altitude
729.197 km
Semi-major axis
7,179.867 km
Eccentricity
0.0101
Inclination
74.0874°
RAAN
33.7555°
Arg. of periapsis
5.5303°
True anomaly
354.58487°
Mean anomaly
354.6933°
Eccentric anomaly
354.63922°
Mean motion
3.56754 °/min
Orbital period
100.91 mins
BSTAR
0.00097059

Documentation

Showing up to 5 results
|